[[{"header":{"parameterUnit":"m.s-1","parameterCategory":2,"la1":30.2991,"la2":30.254,"lo1":-89.0895,"lo2":-89.0444,"dy":0.0017,"dx":0.0017,"nx":28,"ny":28,"refTime":"2023-07-19T21:00:00:Z","depth":"0","parameterNumber":2,"parameterNumberName":"U-component_of_CURRENTS"},"data":[0,0,0,0,0,0,0,0,0,0,0,0,0,0,0,0,0,0,0,0,0,0,0,0,0,0,0,0,0,0,0,0,0,0,0,0,0,0,0,0,0,0,0,0,0,0,0,0,0,0,0,0,0,0,0,0,0,0,0.491,0.4911,0,0.4973,0.4974,0.4975,0.497,0.4969,0.4968,0.4967,0.4864,0.4862,0.486,0,0,0,0,0,0,0,0,0,0,0,0,0,0.4748,0.4751,0.491,0.4911,0.4912,0.4973,0.4974,0.4975,0.497,0.4969,0.4968,0.4967,0.4864,0.4862,0.486,0,0,0,0,0,0,0,0,0,0,0,0,0,0.4814,0.4752,0.491,0.4918,0.4919,0.4973,0.4974,0.4975,0.497,0.4969,0.4968,0.4966,0.4865,0.4862,0.4859,0.4866,0,0,0.485,0.4849,0,0,0,0,0,0,0,0,0.481,0.482,0.4915,0.4917,0.4919,0.4964,0.4879,0.4931,0.497,0.4949,0.4967,0.4966,0.4883,0.4879,0.4894,0.4861,0.4857,0.485,0.4848,0.4847,0.4846,0,0,0,0,0,0,0,0.4806,0.4817,0.4934,0.4917,0.4919,0.4906,0.4914,0.4889,0.4918,0.4951,0.4951,0.4961,0.4883,0.4897,0.4891,0.4855,0.485,0.4847,0.4846,0.4844,0.486,0.4862,0,0,0,0,0,0,0.4805,0.4813,0.4932,0.4936,0.4862,0.491,0.4919,0.4949,0.4922,0.4919,0.4962,0.496,0.4903,0.4895,0.4887,0.4899,0.4847,0.4844,0.4842,0.4858,0.4861,0.4863,0,0,0,0,0,0,0.4801,0.4816,0.4929,0.4875,0.4889,0.4914,0.4948,0.4951,0.4966,0.4933,0.4925,0.4973,0.4902,0.4891,0.4879,0.4894,0.4843,0.484,0.4856,0.4859,0.4862,0.4917,0,0,0,0,0,0,0.4797,0.4815,0.4826,0.4876,0.4892,0.4955,0.495,0.4954,0.4974,0.4973,0.4939,0.4929,0.49,0.4884,0.4876,0.4889,0.4838,0.4853,0.4857,0.4861,0.4913,0.4922,0.493,0,0,0,0,0,0.4791,0.479,0.4827,0.484,0.4912,0.4956,0.4962,0.4974,0.4976,0.4982,0.4973,0.493,0.4905,0.4883,0.4873,0.4886,0.4851,0.4856,0.4861,0.4909,0.492,0.493,0,0,0,0,0,0,0.4703,0.4792,0.4832,0.4855,0.4909,0.4955,0.4951,0.4981,0.4984,0.4975,0.4948,0.4938,0.4952,0.4913,0.489,0.4909,0.4875,0.4878,0.4915,0.4925,0.4934,0.4929,0.4835,0,0,0,0,0,0.4702,0.4739,0.482,0.484,0.4865,0.492,0.4936,0.4961,0.4977,0.4979,0.4965,0.4955,0.4968,0.4939,0.4947,0.4928,0.4945,0.4937,0.4946,0.4953,0.4948,0.5035,0.5051,0.4879,0.4879,0.4879,0,0,0.467,0.4727,0.4744,0.4827,0.4864,0.4897,0.4925,0.4955,0.4979,0.4963,0.4969,0.4994,0.4983,0.4992,0.499,0.4948,0.501,0.496,0.4965,0.4956,0.5042,0.5059,0.5073,0.4883,0.4882,0.4882,0,0,0.4627,0.4685,0.4706,0.476,0.4834,0.487,0.4884,0.4948,0.4968,0.4996,0.5014,0.5048,0.5028,0.5042,0.5041,0.5097,0.5083,0.5099,0.5096,0.5182,0.5196,0.5209,0.5244,0.526,0.5068,0.5068,0.5068,0,0.4591,0.4637,0.4712,0.4753,0.478,0.4859,0.4878,0.4921,0.4973,0.4991,0.4994,0.506,0.5056,0.5087,0.5119,0.5114,0.5148,0.5051,0.5193,0.5206,0.5218,0.5251,0.5268,0.5071,0.5071,0.507,0.507,0,0.4576,0.4617,0.4625,0.4714,0.4752,0.4778,0.4859,0.4901,0.4939,0.4983,0.5048,0.5084,0.5115,0.5137,0.5138,0.5223,0.5216,0.5223,0.5162,0.5239,0.5268,0.5285,0.5076,0.5075,0.5074,0.5073,0,0,0.4487,0.4595,0.46,0.464,0.4734,0.4766,0.4813,0.4877,0.4909,0.4983,0.5028,0.5099,0.5146,0.5153,0.5185,0.5247,0.5374,0.5265,0.5268,0.5291,0.5541,0.5407,0.5411,0.5417,0.5421,0.5424,0.5523,0,0.4454,0.451,0.4566,0.4604,0.464,0.4725,0.4758,0.4834,0.4895,0.4961,0.5045,0.5098,0.5142,0.517,0.5255,0.5358,0.5421,0.5344,0.547,0.5472,0.5338,0.5427,0.5221,0.5282,0.5539,0.5541,0.5543,0,0.4427,0.447,0.4495,0.4577,0.4594,0.4613,0.469,0.4738,0.4852,0.4905,0.4996,0.5073,0.5188,0.5221,0.542,0.5374,0.5465,0.5535,0.5541,0.5404,0.5369,0.5251,0.5302,0.5142,0.5568,0.5566,0.5564,0,0.4347,0.4423,0.4433,0.4465,0.4558,0.4567,0.4607,0.4705,0.4741,0.4871,0.4915,0.507,0.5146,0.5309,0.5471,0.5462,0.5687,0.5682,0.5639,0.5629,0.5467,0.5436,0.5367,0.5831,0.5831,0.5831,0.5831,0,0.4299,0.4316,0.4393,0.4402,0.4408,0.4498,0.4502,0.4584,0.4674,0.471,0.4874,0.4941,0.5183,0.5338,0.5484,0.5607,0.5702,0.5652,0.5658,0.5477,0.5447,0.5309,0.5227,0.5835,0.5834,0.5833,0.5832,0,0.4224,0.4276,0.4296,0.4358,0.4372,0.4376,0.4422,0.4439,0.4541,0.4603,0.4643,0.4864,0.5059,0.5276,0.5533,0.5582,0.5564,0.575,0.5492,0.5464,0.5207,0.5136,0.4947,0.4817,0.569,0.5687,0.5685,0,0.4196,0.4194,0.4239,0.423,0.4243,0.4256,0.4261,0.4359,0.4377,0.4543,0.4568,0.4779,0.4907,0.5212,0.5367,0.556,0.5467,0.5444,0.5376,0.5162,0.5091,0.4944,0.4839,0.5193,0.5187,0.5183,0.5179,0,0.4109,0.4114,0.4118,0.411,0.41,0.4089,0.4101,0.4101,0.4217,0.4288,0.4388,0.4502,0.4784,0.4891,0.5135,0.5241,0.5134,0.5341,0.5216,0.4762,0.4505,0.4392,0.5134,0.5135,0.5139,0.5142,0.5145,0.5147,0.4014,0.3992,0.3977,0.3962,0.3946,0.3887,0.3831,0.3881,0.3895,0.3982,0.4177,0.4312,0.4514,0.4815,0.4867,0.4783,0.4814,0.4688,0.4644,0.4534,0.431,0.4915,0.4858,0.486,0.4862,0.4864,0.4866,0,0.3864,0.385,0.3829,0.3763,0.3679,0.3732,0.3693,0.3631,0.3611,0.3812,0.3912,0.4069,0.4158,0.4309,0.4305,0.4141,0.4028,0.4028,0.3794,0.375,0.4383,0.426,0.3951,0.3951,0.3951,0.3951,0.3952,0.3952,0.3773,0.3696,0.3691,0.3505,0.346,0.33,0.3254,0.3236,0.333,0.3385,0.3488,0.3653,0.3816,0.3859,0.3713,0.3634,0.3377,0.32,0.3224,0.368,0.3739,0.3795,0.3662,0.3233,0.3232,0.2482,0.2475,0.2471]},{"header":{"parameterUnit":"m.s-1","parameterCategory":2,"la1":30.2991,"la2":30.254,"lo1":-89.0895,"lo2":-89.0444,"dy":0.0017,"dx":0.0017,"nx":28,"ny":28,"refTime":"2023-07-19T21:00:00:Z","depth":"0","parameterNumber":3,"parameterNumberName":"V-component_of_CURRENTS"},"data":[0,0,0,0,0,0,0,0,0,0,0,0,0,0,0,0,0,0,0,0,0,0,0,0,0,0,0,0,0,0,0,0,0,0,0,0,0,0,0,0,0,0,0,0,0,0,0,0,0,0,0,0,0,0,0,0,0,0,0.0887,0.0886,0,0.0873,0.0873,0.0873,0.0793,0.079,0.0788,0.0785,0.0646,0.0645,0.0643,0,0,0,0,0,0,0,0,0,0,0,0,0,0.0835,0.0837,0.0887,0.0886,0.0885,0.0873,0.0873,0.0873,0.0793,0.079,0.0787,0.0784,0.0647,0.0645,0.0643,0,0,0,0,0,0,0,0,0,0,0,0,0,0.0849,0.0837,0.0887,0.0839,0.0834,0.0873,0.0873,0.0874,0.0794,0.079,0.0786,0.0783,0.0647,0.0645,0.0643,0.0707,0,0,0.0637,0.0636,0,0,0,0,0,0,0,0,0.0848,0.0852,0.0847,0.0842,0.0837,0.0825,0.0803,0.0809,0.0795,0.0816,0.0785,0.0781,0.0693,0.0687,0.0704,0.07,0.0694,0.0637,0.0636,0.0635,0.0634,0,0,0,0,0,0,0,0.0847,0.0852,0.0888,0.0846,0.084,0.0814,0.0813,0.0805,0.0779,0.0814,0.0806,0.0796,0.069,0.0706,0.0699,0.0692,0.0637,0.0635,0.0634,0.0633,0.0669,0.0671,0,0,0,0,0,0,0.0842,0.0852,0.0888,0.0887,0.0826,0.0818,0.0816,0.0838,0.0781,0.0768,0.0799,0.0792,0.0711,0.0702,0.0694,0.0756,0.0635,0.0633,0.0632,0.0667,0.0669,0.0671,0,0,0,0,0,0,0.0841,0.0847,0.0889,0.0861,0.0863,0.0822,0.0847,0.0839,0.0851,0.077,0.0755,0.0816,0.0708,0.0697,0.0682,0.0749,0.0632,0.063,0.0664,0.0667,0.067,0.0885,0,0,0,0,0,0,0.0841,0.0848,0.0881,0.0862,0.0865,0.0928,0.085,0.0842,0.0847,0.0838,0.078,0.0763,0.0704,0.0686,0.068,0.0744,0.0629,0.0661,0.0665,0.0669,0.0875,0.0895,0.0912,0,0,0,0,0,0.0839,0.0901,0.0884,0.0888,0.0907,0.093,0.0933,0.0891,0.0852,0.0884,0.0825,0.0765,0.0707,0.0687,0.0679,0.0744,0.0659,0.0664,0.0669,0.0866,0.0891,0.0911,0,0,0,0,0,0,0.0911,0.0898,0.0878,0.0937,0.0937,0.0914,0.0939,0.0913,0.0901,0.0884,0.0799,0.0781,0.0791,0.0738,0.0718,0.0762,0.0672,0.0676,0.0825,0.0847,0.0865,0.0857,0.0627,0,0,0,0,0,0.0941,0.0969,0.0956,0.1002,0.1007,0.098,0.0987,0.0965,0.094,0.0932,0.0891,0.0842,0.0814,0.0803,0.077,0.081,0.0753,0.0841,0.086,0.0877,0.0863,0.0872,0.0891,0.0687,0.0687,0.0687,0,0,0.0969,0.0973,0.0984,0.1017,0.101,0.1048,0.0978,0.1004,0.1032,0.0919,0.0954,0.0908,0.0834,0.0865,0.0866,0.0827,0.0905,0.0883,0.0898,0.0874,0.0879,0.0899,0.0916,0.0691,0.069,0.069,0,0,0.1034,0.1059,0.1092,0.1112,0.1117,0.1115,0.1128,0.1126,0.1122,0.1152,0.107,0.1056,0.1035,0.0998,0.0972,0.1074,0.0998,0.1076,0.1176,0.1188,0.1205,0.1219,0.1181,0.119,0.1094,0.1094,0.1094,0,0.1059,0.1118,0.111,0.1157,0.1179,0.115,0.1201,0.1216,0.1211,0.1217,0.1179,0.1152,0.1095,0.1112,0.114,0.1119,0.1096,0.1106,0.1215,0.1228,0.1238,0.1196,0.1203,0.1105,0.1104,0.1103,0.1102,0,0.1144,0.1196,0.1227,0.1271,0.1309,0.1355,0.1364,0.1406,0.1397,0.1389,0.141,0.135,0.1324,0.1324,0.1259,0.1319,0.1268,0.1238,0.1166,0.1272,0.122,0.1224,0.1121,0.1117,0.1113,0.1111,0,0,0.1183,0.1259,0.1272,0.1315,0.1375,0.1417,0.1487,0.1533,0.1576,0.1577,0.1632,0.1584,0.1547,0.1511,0.1455,0.1459,0.1518,0.1395,0.1391,0.1369,0.1523,0.1421,0.1413,0.1529,0.1531,0.1533,0.1458,0,0.1241,0.1336,0.1368,0.1482,0.1541,0.1565,0.1641,0.1684,0.17,0.176,0.1708,0.1728,0.1623,0.1632,0.1624,0.1539,0.1536,0.1537,0.1409,0.1403,0.1312,0.1418,0.1347,0.127,0.1461,0.1462,0.1462,0,0.1324,0.1379,0.1479,0.1594,0.1623,0.169,0.1803,0.1864,0.1924,0.1938,0.1946,0.1908,0.1898,0.1816,0.172,0.1735,0.1642,0.1569,0.1565,0.1389,0.1309,0.119,0.1268,0.1006,0.1466,0.1466,0.1466,0,0.1363,0.1473,0.1551,0.1591,0.171,0.1768,0.1834,0.1911,0.1979,0.2052,0.2111,0.2074,0.2087,0.1976,0.18,0.1785,0.1695,0.1654,0.1465,0.1454,0.1319,0.1294,0.1131,0.1603,0.1603,0.1603,0.1603,0,0.143,0.1504,0.1575,0.1629,0.1755,0.1821,0.1948,0.2011,0.2114,0.2222,0.22,0.2279,0.2138,0.2065,0.188,0.1673,0.1752,0.1484,0.1443,0.1389,0.1373,0.1073,0.0974,0.16,0.1601,0.1601,0.1602,0,0.1471,0.1508,0.1624,0.1737,0.1779,0.1875,0.2023,0.2123,0.2204,0.2355,0.2394,0.2447,0.239,0.2194,0.2025,0.178,0.1435,0.1489,0.1405,0.1355,0.0918,0.0836,0.0641,0.0551,0.1275,0.1272,0.127,0,0.1505,0.1556,0.1688,0.1763,0.1816,0.1946,0.2054,0.2163,0.2277,0.2456,0.2553,0.2572,0.2612,0.2296,0.192,0.1579,0.1398,0.1233,0.1178,0.0885,0.0765,0.0718,0.0655,0.1082,0.1079,0.1076,0.1073,0,0.1575,0.1606,0.1693,0.1824,0.194,0.2079,0.223,0.2333,0.2491,0.262,0.279,0.2838,0.2603,0.2272,0.1799,0.1532,0.1046,0.1159,0.0902,0.0635,0.053,0.0426,0.1103,0.1047,0.1049,0.1051,0.1053,0.1054,0.1622,0.1688,0.1776,0.1906,0.2035,0.2192,0.2308,0.2479,0.2663,0.2879,0.2937,0.303,0.254,0.1934,0.1562,0.0777,0.0886,0.0504,0.0438,0.0423,0.0307,0.0895,0.0765,0.0766,0.0767,0.0767,0.0768,0,0.166,0.1719,0.1852,0.1994,0.2119,0.2186,0.2416,0.2545,0.2748,0.2974,0.311,0.2865,0.2253,0.1646,0.0614,0.0094,-0.0018,-0.0161,-0.0249,-0.0267,0.0275,0.0231,-0.0076,-0.0075,-0.0075,-0.0075,-0.0075,-0.0074,0.1672,0.177,0.1833,0.2017,0.2123,0.2293,0.242,0.2636,0.283,0.3011,0.3034,0.3047,0.2439,0.08,-0.0343,-0.0565,-0.0814,-0.0893,-0.0975,-0.0649,-0.0592,-0.0538,-0.0606,-0.1084,-0.1085,-0.1497,-0.1502,-0.1506]}],[{"header":{"parameterUnit":"m.s-1","parameterCategory":2,"la1":30.2991,"la2":30.254,"lo1":-89.0895,"lo2":-89.0444,"dy":0.0017,"dx":0.0017,"nx":28,"ny":28,"refTime":"2023-07-19T21:00:00:Z","depth":"2","parameterNumber":2,"parameterNumberName":"U-component_of_CURRENTS"},"data":[0,0,0,0,0,0,0,0,0,0,0,0,0,0,0,0,0,0,0,0,0,0,0,0,0,0,0,0,0,0,0,0,0,0,0,0,0,0,0,0,0,0,0,0,0,0,0,0,0,0,0,0,0,0,0,0,0,0,0.2732,0.2733,0,0.301,0.3014,0.3019,0.3396,0.3401,0.3406,0.341,0.3508,0.3507,0.3505,0,0,0,0,0,0,0,0,0,0,0,0,0,0.2702,0.2701,0.2732,0.2734,0.2735,0.3009,0.3015,0.302,0.3396,0.3401,0.3407,0.3412,0.3509,0.3507,0.3505,0,0,0,0,0,0,0,0,0,0,0,0,0,0.2838,0.2701,0.2731,0.2942,0.2963,0.3008,0.3015,0.3022,0.3394,0.3401,0.3408,0.3415,0.351,0.3507,0.3505,0.3349,0,0,0.3497,0.3496,0,0,0,0,0,0,0,0,0.2829,0.2841,0.291,0.2928,0.295,0.316,0.304,0.3116,0.3393,0.3249,0.341,0.3418,0.3358,0.3368,0.3434,0.3354,0.3358,0.3497,0.3495,0.3494,0.3493,0,0,0,0,0,0,0,0.2819,0.2832,0.2861,0.291,0.2935,0.3082,0.311,0.3059,0.3272,0.3263,0.3286,0.3286,0.3372,0.3435,0.3438,0.3359,0.3497,0.3494,0.3493,0.3492,0.3468,0.3468,0,0,0,0,0,0,0.2731,0.282,0.2851,0.2867,0.2886,0.3075,0.3107,0.31,0.3277,0.3307,0.328,0.3302,0.3437,0.344,0.3442,0.3671,0.3494,0.3492,0.349,0.3467,0.3468,0.3469,0,0,0,0,0,0,0.2729,0.273,0.284,0.2838,0.286,0.3065,0.3057,0.3102,0.3283,0.3289,0.3321,0.3425,0.3442,0.3446,0.3524,0.3661,0.349,0.3488,0.3466,0.3467,0.3468,0.3866,0,0,0,0,0,0,0.2727,0.2728,0.2816,0.283,0.2855,0.2925,0.305,0.3101,0.3255,0.3292,0.3418,0.3431,0.3448,0.3529,0.3522,0.3655,0.3486,0.3464,0.3466,0.3468,0.3852,0.3881,0.3905,0,0,0,0,0,0.2725,0.2816,0.2818,0.2828,0.2927,0.2924,0.2956,0.3138,0.3255,0.3332,0.345,0.3434,0.3534,0.3528,0.352,0.3656,0.3464,0.3466,0.3468,0.384,0.3875,0.3905,0,0,0,0,0,0,0.2883,0.2859,0.2865,0.2955,0.2944,0.2984,0.311,0.3174,0.3334,0.3423,0.3449,0.3466,0.3588,0.351,0.3503,0.3633,0.3489,0.349,0.3775,0.3807,0.3833,0.3723,0.3484,0,0,0,0,0,0.2921,0.2979,0.2921,0.2995,0.2993,0.3051,0.312,0.3199,0.3274,0.3368,0.3428,0.3491,0.3558,0.3606,0.361,0.3664,0.353,0.3727,0.3755,0.378,0.3672,0.36,0.3613,0.3475,0.3475,0.3475,0,0,0.3003,0.2993,0.3039,0.3033,0.3063,0.3082,0.3123,0.322,0.3313,0.3326,0.3531,0.3579,0.3583,0.371,0.375,0.3691,0.3774,0.3782,0.3806,0.368,0.3604,0.3617,0.3629,0.3477,0.3477,0.3476,0,0,0.3063,0.3159,0.3166,0.3188,0.3201,0.322,0.3243,0.329,0.3423,0.3528,0.3616,0.3709,0.3783,0.3839,0.3872,0.3992,0.3912,0.4043,0.4124,0.4065,0.4076,0.4083,0.4065,0.4067,0.4073,0.4074,0.4074,0,0.3148,0.3162,0.3177,0.318,0.3236,0.327,0.3288,0.3403,0.3496,0.3568,0.363,0.3793,0.3822,0.3973,0.4066,0.4061,0.4024,0.4053,0.4107,0.411,0.4111,0.4088,0.4085,0.4093,0.4091,0.4089,0.4087,0,0.313,0.3235,0.3257,0.3262,0.3315,0.3375,0.3426,0.3531,0.3665,0.3746,0.3922,0.3988,0.4051,0.4145,0.4167,0.4239,0.4221,0.4163,0.405,0.415,0.412,0.411,0.4121,0.4114,0.4108,0.4103,0,0,0.3088,0.3206,0.3241,0.3286,0.3397,0.3401,0.3558,0.3639,0.3767,0.391,0.4047,0.4209,0.4242,0.426,0.4336,0.4319,0.4388,0.4277,0.4265,0.4299,0.4317,0.4222,0.4201,0.4399,0.4396,0.4394,0.4345,0,0.3065,0.3098,0.3185,0.331,0.334,0.3471,0.3598,0.3724,0.3874,0.4026,0.4145,0.4287,0.4308,0.4394,0.4395,0.4345,0.4356,0.4405,0.4164,0.4154,0.4093,0.4181,0.3941,0.3866,0.4334,0.4332,0.4331,0,0.3025,0.3059,0.3133,0.3329,0.3353,0.3441,0.3634,0.3761,0.3982,0.411,0.4258,0.4349,0.4405,0.4395,0.4328,0.4385,0.4347,0.4309,0.4307,0.4019,0.4033,0.3803,0.3827,0.4311,0.4313,0.4314,0.4315,0,0.2948,0.3079,0.3144,0.3217,0.3382,0.3462,0.3568,0.378,0.3892,0.4145,0.4232,0.4353,0.4384,0.4331,0.4276,0.4308,0.4174,0.419,0.4078,0.4075,0.3691,0.3656,0.4098,0.4098,0.4099,0.4099,0.4099,0,0.2918,0.2998,0.312,0.3176,0.3263,0.3418,0.3559,0.3712,0.3916,0.4039,0.4254,0.4329,0.4355,0.4326,0.4276,0.4129,0.4156,0.404,0.4026,0.3838,0.3818,0.4006,0.3996,0.4097,0.4097,0.4098,0.4098,0,0.282,0.2932,0.3018,0.3184,0.3237,0.3301,0.3491,0.3594,0.3814,0.3964,0.4026,0.4239,0.4202,0.4223,0.4128,0.4079,0.3973,0.3932,0.3741,0.3701,0.3931,0.3942,0.3771,0.3767,0.3763,0.376,0.3757,0,0.2749,0.2788,0.2972,0.3026,0.3103,0.3211,0.3299,0.3521,0.3618,0.3881,0.3926,0.4009,0.4019,0.3909,0.3857,0.3754,0.3862,0.3488,0.3448,0.3879,0.3884,0.39,0.3916,0.3165,0.3158,0.3152,0.3147,0,0.261,0.272,0.2783,0.2888,0.299,0.3066,0.3202,0.3236,0.3494,0.3559,0.3666,0.3686,0.3713,0.3512,0.3456,0.3376,0.3479,0.3362,0.3803,0.3291,0.3303,0.3311,0.3346,0.3094,0.3099,0.3103,0.3106,0.3108,0.2533,0.254,0.2679,0.2757,0.2858,0.2935,0.2956,0.306,0.3109,0.3174,0.3297,0.3232,0.3289,0.3044,0.2942,0.2931,0.3152,0.303,0.305,0.3075,0.3018,0.3023,0.2755,0.2758,0.2761,0.2763,0.2765,0,0.2418,0.2477,0.254,0.2657,0.2692,0.2817,0.2899,0.2856,0.2826,0.2826,0.2808,0.2542,0.2431,0.2508,0.2419,0.2425,0.2422,0.2327,0.2318,0.2373,0.2421,0.2332,0.1885,0.1882,0.1879,0.1877,0,0,0.2388,0.2408,0.2437,0.2473,0.2557,0.2576,0.2603,0.2503,0.2465,0.2233,0.2135,0.2237,0.2391,0.2073,0.207,0.1961,0.2137,0.1886,0.26,0.2641,0.2684,0.2844,0.2771,0,0,0,0,0]},{"header":{"parameterUnit":"m.s-1","parameterCategory":2,"la1":30.2991,"la2":30.254,"lo1":-89.0895,"lo2":-89.0444,"dy":0.0017,"dx":0.0017,"nx":28,"ny":28,"refTime":"2023-07-19T21:00:00:Z","depth":"2","parameterNumber":3,"parameterNumberName":"V-component_of_CURRENTS"},"data":[0,0,0,0,0,0,0,0,0,0,0,0,0,0,0,0,0,0,0,0,0,0,0,0,0,0,0,0,0,0,0,0,0,0,0,0,0,0,0,0,0,0,0,0,0,0,0,0,0,0,0,0,0,0,0,0,0,0,-0.05,-0.0499,0,-0.0444,-0.0443,-0.0443,-0.03,-0.0298,-0.0295,-0.0292,-0.0228,-0.0228,-0.0229,0,0,0,0,0,0,0,0,0,0,0,0,0,-0.0482,-0.0483,-0.05,-0.0499,-0.0499,-0.0444,-0.0443,-0.0442,-0.0301,-0.0298,-0.0294,-0.0291,-0.0227,-0.0228,-0.0229,0,0,0,0,0,0,0,0,0,0,0,0,0,-0.0462,-0.0483,-0.05,-0.0424,-0.0417,-0.0445,-0.0443,-0.0442,-0.0302,-0.0297,-0.0293,-0.029,-0.0227,-0.0228,-0.0229,-0.0319,0,0,-0.0233,-0.0234,0,0,0,0,0,0,0,0,-0.0463,-0.0462,-0.0436,-0.0429,-0.0422,-0.0378,-0.0413,-0.0402,-0.0303,-0.0342,-0.0292,-0.0288,-0.0282,-0.0279,-0.0273,-0.0316,-0.0313,-0.0233,-0.0234,-0.0235,-0.0235,0,0,0,0,0,0,0,-0.0465,-0.0464,-0.0475,-0.0436,-0.0427,-0.0393,-0.0385,-0.041,-0.0333,-0.0338,-0.0329,-0.0329,-0.0277,-0.0272,-0.027,-0.0312,-0.0233,-0.0234,-0.0235,-0.0236,-0.0263,-0.0263,0,0,0,0,0,0,-0.0483,-0.0466,-0.0476,-0.0473,-0.0436,-0.0397,-0.0388,-0.0393,-0.0333,-0.0321,-0.0332,-0.0323,-0.0272,-0.0269,-0.0268,-0.0205,-0.0235,-0.0236,-0.0236,-0.0263,-0.0263,-0.0263,0,0,0,0,0,0,-0.0483,-0.0485,-0.0479,-0.047,-0.0467,-0.0402,-0.0409,-0.0395,-0.0405,-0.0329,-0.0315,-0.0359,-0.0269,-0.0266,-0.0252,-0.0208,-0.0236,-0.0237,-0.0263,-0.0263,-0.0263,-0.0187,0,0,0,0,0,0,-0.0483,-0.0486,-0.0553,-0.0472,-0.0468,-0.0515,-0.0413,-0.0397,-0.0412,-0.0399,-0.0349,-0.0336,-0.0265,-0.0251,-0.0254,-0.021,-0.0238,-0.0263,-0.0263,-0.0263,-0.019,-0.0185,-0.018,0,0,0,0,0,-0.0483,-0.0551,-0.0556,-0.0561,-0.0544,-0.0519,-0.0515,-0.0451,-0.0418,-0.0443,-0.0363,-0.0339,-0.0251,-0.0253,-0.0256,-0.0211,-0.0263,-0.0263,-0.0263,-0.0192,-0.0186,-0.018,0,0,0,0,0,0,-0.0534,-0.0542,-0.0545,-0.0604,-0.0586,-0.0496,-0.0526,-0.0494,-0.046,-0.0454,-0.0359,-0.0343,-0.0314,-0.0304,-0.0308,-0.0222,-0.0248,-0.0249,-0.0193,-0.0188,-0.0183,-0.0243,-0.0239,0,0,0,0,0,-0.0598,-0.0658,-0.0635,-0.0673,-0.0684,-0.0628,-0.0632,-0.0595,-0.0533,-0.0516,-0.0477,-0.0415,-0.0324,-0.0288,-0.0265,-0.0245,-0.0289,-0.0216,-0.0211,-0.0207,-0.0261,-0.0291,-0.0294,-0.0262,-0.0262,-0.0262,0,0,-0.06,-0.0633,-0.0651,-0.0695,-0.0672,-0.0672,-0.0617,-0.0632,-0.0585,-0.0523,-0.0488,-0.0441,-0.0328,-0.0257,-0.0243,-0.0232,-0.0231,-0.0207,-0.0202,-0.0261,-0.0291,-0.0295,-0.0298,-0.0262,-0.0262,-0.0262,0,0,-0.059,-0.0693,-0.0718,-0.0745,-0.0772,-0.0755,-0.0775,-0.0747,-0.0694,-0.0669,-0.0564,-0.0514,-0.0435,-0.0315,-0.023,-0.0221,-0.0231,-0.0194,-0.0182,-0.0208,-0.0211,-0.0215,-0.0235,-0.0241,-0.0157,-0.0156,-0.0156,0,-0.0599,-0.0641,-0.0714,-0.0745,-0.0759,-0.0792,-0.0784,-0.0751,-0.0714,-0.0627,-0.0658,-0.0496,-0.0448,-0.025,-0.0219,-0.0208,-0.023,-0.019,-0.0201,-0.0206,-0.0211,-0.0232,-0.024,-0.0153,-0.0153,-0.0154,-0.0154,0,-0.0585,-0.0645,-0.0662,-0.072,-0.0756,-0.078,-0.0757,-0.0794,-0.0771,-0.0651,-0.0545,-0.0503,-0.0355,-0.0338,-0.0263,-0.0215,-0.0221,-0.0213,-0.0213,-0.021,-0.0231,-0.0241,-0.0148,-0.0149,-0.015,-0.0151,0,0,-0.0564,-0.0626,-0.0658,-0.0658,-0.0764,-0.0764,-0.0762,-0.0679,-0.0588,-0.0588,-0.0422,-0.0333,-0.0285,-0.0204,-0.0137,-0.02,-0.024,-0.0223,-0.0226,-0.024,-0.0297,-0.0288,-0.0298,-0.0222,-0.0224,-0.0226,-0.0283,0,-0.053,-0.0552,-0.0613,-0.0628,-0.0638,-0.0712,-0.0668,-0.0609,-0.0537,-0.0412,-0.0319,-0.0149,-0.0207,-0.0127,-0.0189,-0.0249,-0.0271,-0.0228,-0.0306,-0.031,-0.0298,-0.0311,-0.0272,-0.032,-0.0292,-0.0294,-0.0295,0,-0.0533,-0.056,-0.0545,-0.0554,-0.0562,-0.0558,-0.0543,-0.0493,-0.0316,-0.0248,-0.0117,0.0006,0.0024,-0.0065,-0.0208,-0.0173,-0.0228,-0.033,-0.0331,-0.0377,-0.0321,-0.0328,-0.0339,-0.0312,-0.0311,-0.0309,-0.0308,0,-0.0496,-0.0529,-0.0508,-0.0532,-0.0543,-0.0515,-0.0498,-0.039,-0.0295,-0.0096,-0.0042,0.0073,0.0064,-0.0033,-0.0158,-0.0178,-0.0376,-0.0386,-0.0423,-0.0421,-0.0441,-0.0438,-0.048,-0.048,-0.0479,-0.0479,-0.0479,0,-0.0472,-0.0467,-0.047,-0.0468,-0.0421,-0.0431,-0.031,-0.0294,-0.0161,-0.0,0.0093,0.0148,0.0038,-0.0006,-0.0119,-0.0311,-0.0302,-0.0465,-0.045,-0.0408,-0.0401,-0.0448,-0.0444,-0.0481,-0.0481,-0.048,-0.048,0,-0.042,-0.0429,-0.0413,-0.0407,-0.0389,-0.0347,-0.024,-0.0135,-0.0085,0.0069,0.0141,0.0171,0.0068,-0.0006,-0.0182,-0.0295,-0.0428,-0.0449,-0.0387,-0.0368,-0.0472,-0.0463,-0.0564,-0.0565,-0.0565,-0.0565,-0.0566,0,-0.0381,-0.0368,-0.0376,-0.0348,-0.0323,-0.0241,-0.017,-0.0094,0.0017,0.0086,0.0162,0.0149,0.0234,-0.0028,-0.0217,-0.0358,-0.0387,-0.0453,-0.0507,-0.0513,-0.0488,-0.0478,-0.0469,-0.0483,-0.0483,-0.0483,-0.0482,0,-0.0323,-0.0332,-0.0314,-0.0264,-0.0197,-0.0119,0.0008,0.0099,0.0192,0.031,0.0444,0.0535,0.0272,0.0139,-0.0115,-0.0237,-0.044,-0.0455,-0.0468,-0.0464,-0.044,-0.0414,-0.0407,-0.0479,-0.048,-0.048,-0.048,-0.048,-0.0287,-0.0265,-0.0232,-0.017,-0.0093,0.0041,0.0169,0.0328,0.0536,0.0726,0.0694,0.0784,0.0473,0.019,-0.0059,-0.0376,-0.0404,-0.0515,-0.0515,-0.0515,-0.0492,-0.047,-0.051,-0.0511,-0.0511,-0.0511,-0.0512,0,-0.0238,-0.019,-0.0127,-0.0034,0.0093,0.0108,0.0299,0.0477,0.0783,0.0907,0.1074,0.0884,0.0678,0.0326,-0.0126,-0.0405,-0.0433,-0.0503,-0.0475,-0.0476,-0.0478,-0.0452,-0.0461,-0.0461,-0.0461,-0.0462,0,0,-0.0206,-0.0121,-0.0075,0.0129,0.0212,0.0401,0.0529,0.0814,0.0974,0.1218,0.1269,0.121,0.0783,0.0473,0.0072,-0.0184,-0.0264,-0.0241,-0.0256,-0.0179,-0.0176,-0.0465,-0.0424,0,0,0,0,0]}],[{"header":{"parameterUnit":"m.s-1","parameterCategory":2,"la1":30.2991,"la2":30.254,"lo1":-89.0895,"lo2":-89.0444,"dy":0.0017,"dx":0.0017,"nx":28,"ny":28,"refTime":"2023-07-19T21:00:00:Z","depth":"4","parameterNumber":2,"parameterNumberName":"U-component_of_CURRENTS"},"data":[0,0,0,0,0,0,0,0,0,0,0,0,0,0,0,0,0,0,0,0,0,0,0,0,0,0,0,0,0,0,0,0,0,0,0,0,0,0,0,0,0,0,0,0,0,0,0,0,0,0,0,0,0,0,0,0,0,0,0.1123,0.1124,0,0.1203,0.1204,0.1205,0.1339,0.1341,0.1344,0.1346,0.1551,0.1554,0.1558,0,0,0,0,0,0,0,0,0,0,0,0,0,0.1078,0.1078,0.1123,0.1124,0.1125,0.1203,0.1204,0.1205,0.1338,0.1341,0.1344,0.1347,0.155,0.1554,0.1558,0,0,0,0,0,0,0,0,0,0,0,0,0,0.1121,0.1078,0.1122,0.1201,0.1208,0.1203,0.1204,0.1206,0.1338,0.1341,0.1345,0.1348,0.1549,0.1554,0.1558,0.1513,0,0,0.1573,0.1575,0,0,0,0,0,0,0,0,0.1119,0.1123,0.1188,0.1195,0.1204,0.1265,0.1264,0.1315,0.1337,0.1288,0.1346,0.135,0.1465,0.1476,0.1481,0.1523,0.1532,0.1573,0.1576,0.1578,0.158,0,0,0,0,0,0,0,0.1116,0.112,0.1154,0.1189,0.1198,0.123,0.124,0.1274,0.1357,0.1293,0.1303,0.1311,0.147,0.1476,0.1487,0.1535,0.1573,0.1577,0.158,0.1582,0.1745,0.1747,0,0,0,0,0,0,0.1102,0.1117,0.1152,0.1157,0.117,0.1227,0.1239,0.1241,0.1354,0.1374,0.1307,0.1317,0.1466,0.1482,0.1495,0.1591,0.1578,0.1583,0.1585,0.1744,0.1746,0.1747,0,0,0,0,0,0,0.11,0.1104,0.1149,0.114,0.1148,0.1224,0.1226,0.1241,0.1292,0.1364,0.1387,0.1349,0.147,0.1489,0.1569,0.1596,0.1585,0.1589,0.1742,0.1744,0.1746,0.1692,0,0,0,0,0,0,0.1099,0.1102,0.1108,0.1138,0.1148,0.1181,0.1223,0.124,0.1289,0.1303,0.1405,0.1426,0.1474,0.1561,0.1573,0.1602,0.1593,0.174,0.1743,0.1746,0.1692,0.1693,0.1693,0,0,0,0,0,0.1097,0.1096,0.1108,0.1113,0.115,0.1182,0.119,0.1257,0.1288,0.1315,0.1385,0.1425,0.1589,0.1565,0.1579,0.161,0.1739,0.1742,0.1745,0.1692,0.1692,0.1693,0,0,0,0,0,0,0.1082,0.1109,0.1124,0.1132,0.1168,0.1206,0.1238,0.1264,0.1333,0.1365,0.1428,0.1452,0.1536,0.1578,0.155,0.167,0.1676,0.1682,0.1631,0.1632,0.1632,0.1669,0.1597,0,0,0,0,0,0.1073,0.1084,0.1114,0.1124,0.1147,0.119,0.1214,0.1256,0.1311,0.1348,0.1411,0.1488,0.1547,0.1596,0.1655,0.1704,0.1734,0.1742,0.1742,0.1741,0.1784,0.1821,0.1827,0.1758,0.1758,0.1758,0,0,0.106,0.1085,0.1085,0.1122,0.116,0.1183,0.1217,0.1268,0.1299,0.1356,0.1435,0.1488,0.1561,0.1628,0.167,0.1676,0.177,0.1746,0.1744,0.1788,0.1825,0.1831,0.1837,0.176,0.176,0.176,0,0,0.1059,0.1076,0.1096,0.1119,0.1179,0.1202,0.122,0.1276,0.1327,0.1381,0.1439,0.1511,0.1594,0.1655,0.1692,0.1728,0.1764,0.1754,0.1789,0.1822,0.1828,0.1833,0.1839,0.1846,0.1759,0.1759,0.1759,0,0.1054,0.1072,0.1107,0.1135,0.1161,0.121,0.124,0.1275,0.135,0.1404,0.1418,0.1558,0.1609,0.1696,0.1723,0.1729,0.1751,0.177,0.1819,0.1826,0.1832,0.1838,0.1846,0.1756,0.1757,0.1757,0.1757,0,0.1062,0.1082,0.1102,0.1147,0.118,0.1213,0.1264,0.1323,0.1377,0.1417,0.1526,0.1581,0.1681,0.1692,0.1724,0.1807,0.1805,0.1801,0.1808,0.1835,0.184,0.1849,0.1753,0.1754,0.1755,0.1755,0,0,0.1034,0.1096,0.1103,0.1135,0.1192,0.1224,0.129,0.1371,0.1439,0.1499,0.1582,0.1671,0.172,0.1769,0.1805,0.1842,0.1879,0.1857,0.1859,0.1846,0.1944,0.1845,0.1845,0.1881,0.1884,0.1885,0.1912,0,0.104,0.1082,0.1121,0.1166,0.1191,0.1265,0.1323,0.1404,0.1479,0.1564,0.1636,0.1724,0.1738,0.1796,0.1832,0.1881,0.1911,0.1873,0.1939,0.1942,0.1835,0.1856,0.1893,0.1919,0.1921,0.1923,0.1924,0,0.1032,0.1064,0.1109,0.1195,0.1223,0.1258,0.139,0.146,0.1584,0.165,0.1744,0.1793,0.1885,0.1873,0.1964,0.1942,0.1964,0.1977,0.1977,0.1926,0.1862,0.1901,0.1941,0.194,0.1938,0.1937,0.1936,0,0.0986,0.1059,0.1102,0.1119,0.1217,0.1284,0.1364,0.1492,0.1579,0.1719,0.1782,0.1874,0.1944,0.1979,0.2026,0.2007,0.2098,0.2057,0.1982,0.1973,0.2076,0.207,0.2125,0.2125,0.2124,0.2124,0.2124,0,0.0957,0.0991,0.1086,0.1098,0.118,0.1275,0.1398,0.1495,0.1633,0.1727,0.1833,0.1895,0.1984,0.2038,0.2048,0.2047,0.2115,0.201,0.1986,0.2046,0.2038,0.2079,0.2073,0.2125,0.2125,0.2125,0.2125,0,0.089,0.0948,0.1002,0.1113,0.1154,0.1225,0.1399,0.1482,0.1635,0.1754,0.1803,0.1938,0.2017,0.2071,0.2136,0.2078,0.2079,0.2065,0.2131,0.2107,0.1918,0.191,0.1959,0.1956,0.1954,0.1951,0.195,0,0.0858,0.0872,0.099,0.1029,0.1082,0.1204,0.1283,0.1459,0.154,0.1758,0.1786,0.1929,0.2001,0.2001,0.2069,0.207,0.2059,0.2032,0.1979,0.1936,0.1908,0.1903,0.1899,0.1946,0.1945,0.1944,0.1944,0,0.0793,0.0846,0.0892,0.0957,0.1035,0.1134,0.1255,0.1298,0.1511,0.1648,0.1743,0.1802,0.1895,0.1936,0.1976,0.1967,0.2025,0.2005,0.2009,0.1958,0.192,0.1894,0.1892,0.1935,0.1936,0.1937,0.1937,0,0.0748,0.0762,0.0824,0.0879,0.0965,0.1023,0.1117,0.122,0.133,0.1559,0.1581,0.1739,0.1873,0.1884,0.1904,0.1909,0.1873,0.1796,0.181,0.1821,0.1767,0.1697,0.164,0,0,0,0,0,0.0701,0.0698,0.0738,0.0794,0.0875,0.0928,0.1072,0.1174,0.1356,0.1384,0.1488,0.157,0.165,0.1723,0.1699,0.1826,0.1862,0.1788,0.1775,0.1886,0.1896,0.1847,0,0,0,0,0,0,0.0665,0.0689,0.0699,0.0706,0.0728,0.0813,0.0902,0.1032,0.107,0.1258,0.131,0.1459,0.1553,0.1639,0.1659,0.1682,0.1639,0.1889,0.1885,0.188,0.189,0.1898,0.1851,0,0,0,0,0]},{"header":{"parameterUnit":"m.s-1","parameterCategory":2,"la1":30.2991,"la2":30.254,"lo1":-89.0895,"lo2":-89.0444,"dy":0.0017,"dx":0.0017,"nx":28,"ny":28,"refTime":"2023-07-19T21:00:00:Z","depth":"4","parameterNumber":3,"parameterNumberName":"V-component_of_CURRENTS"},"data":[0,0,0,0,0,0,0,0,0,0,0,0,0,0,0,0,0,0,0,0,0,0,0,0,0,0,0,0,0,0,0,0,0,0,0,0,0,0,0,0,0,0,0,0,0,0,0,0,0,0,0,0,0,0,0,0,0,0,-0.0035,-0.0036,0,-0.0131,-0.0132,-0.0134,-0.0225,-0.0225,-0.0226,-0.0227,-0.0319,-0.032,-0.0322,0,0,0,0,0,0,0,0,0,0,0,0,0,-0.0021,-0.0021,-0.0035,-0.0036,-0.0036,-0.013,-0.0132,-0.0134,-0.0225,-0.0225,-0.0226,-0.0227,-0.0318,-0.032,-0.0322,0,0,0,0,0,0,0,0,0,0,0,0,0,-0.0068,-0.0021,-0.0035,-0.0089,-0.0094,-0.013,-0.0132,-0.0135,-0.0224,-0.0225,-0.0226,-0.0227,-0.0317,-0.032,-0.0323,-0.032,0,0,-0.0331,-0.0332,0,0,0,0,0,0,0,0,-0.0065,-0.0069,-0.008,-0.0085,-0.0091,-0.0162,-0.0161,-0.0195,-0.0224,-0.0181,-0.0227,-0.0228,-0.0262,-0.0269,-0.0293,-0.0324,-0.0328,-0.0331,-0.0333,-0.0334,-0.0335,0,0,0,0,0,0,0,-0.0062,-0.0066,-0.0078,-0.0081,-0.0087,-0.0139,-0.0147,-0.0169,-0.0218,-0.0185,-0.019,-0.0192,-0.0266,-0.029,-0.0295,-0.033,-0.0331,-0.0334,-0.0335,-0.0336,-0.0428,-0.0428,0,0,0,0,0,0,-0.0033,-0.0062,-0.0075,-0.0081,-0.0074,-0.0138,-0.0147,-0.0143,-0.0219,-0.023,-0.0191,-0.0196,-0.0285,-0.0292,-0.0299,-0.0315,-0.0334,-0.0337,-0.0338,-0.0427,-0.0428,-0.0429,0,0,0,0,0,0,-0.0032,-0.0033,-0.0071,-0.007,-0.0078,-0.0136,-0.0132,-0.0144,-0.0167,-0.0222,-0.0235,-0.02,-0.0286,-0.0295,-0.0341,-0.0319,-0.0338,-0.034,-0.0426,-0.0427,-0.0428,-0.0338,0,0,0,0,0,0,-0.0031,-0.0032,-0.0019,-0.0067,-0.0076,-0.0076,-0.0131,-0.0145,-0.0164,-0.0171,-0.0234,-0.0244,-0.0287,-0.0337,-0.0344,-0.0323,-0.0343,-0.0425,-0.0426,-0.0428,-0.034,-0.0336,-0.0333,0,0,0,0,0,-0.003,-0.0007,-0.0017,-0.0019,-0.0056,-0.0075,-0.0084,-0.0134,-0.0163,-0.0161,-0.023,-0.0242,-0.0351,-0.034,-0.0347,-0.0327,-0.0424,-0.0426,-0.0428,-0.0342,-0.0337,-0.0333,0,0,0,0,0,0,0.0007,-0.0015,-0.0027,-0.0011,-0.0031,-0.0088,-0.0091,-0.0123,-0.0176,-0.0188,-0.0252,-0.0267,-0.0304,-0.0333,-0.0319,-0.0364,-0.0388,-0.0392,-0.0321,-0.0316,-0.0313,-0.03,-0.0345,0,0,0,0,0,0.0026,0.003,0.0007,0.0018,0.0015,-0.0036,-0.0049,-0.0079,-0.0129,-0.0154,-0.0201,-0.026,-0.0316,-0.033,-0.0382,-0.0391,-0.0433,-0.0388,-0.0384,-0.038,-0.038,-0.0457,-0.0459,-0.0434,-0.0434,-0.0434,0,0,0.0041,0.0031,0.0032,0.0025,0.0,0.0001,-0.0048,-0.0059,-0.0065,-0.0152,-0.0181,-0.0249,-0.0323,-0.0355,-0.037,-0.0371,-0.0403,-0.0382,-0.0378,-0.038,-0.0459,-0.0461,-0.0463,-0.0435,-0.0435,-0.0435,0,0,0.0064,0.007,0.0077,0.0072,0.0055,0.0033,0.0039,-0.0004,-0.0028,-0.0057,-0.0142,-0.0205,-0.0255,-0.0322,-0.0359,-0.0364,-0.0393,-0.0366,-0.0316,-0.039,-0.0393,-0.0395,-0.0415,-0.0421,-0.0349,-0.0348,-0.0348,0,0.0072,0.0094,0.0077,0.0085,0.0088,0.0055,0.0067,0.0045,-0.0011,-0.0039,-0.005,-0.0191,-0.0244,-0.0319,-0.0324,-0.0351,-0.0382,-0.0319,-0.0383,-0.0387,-0.0391,-0.0412,-0.0419,-0.0344,-0.0345,-0.0345,-0.0346,0,0.0104,0.0122,0.013,0.0132,0.0134,0.0145,0.0126,0.0111,0.0086,0.0047,-0.0023,-0.0113,-0.0202,-0.022,-0.0268,-0.0326,-0.0332,-0.0377,-0.0384,-0.0387,-0.0409,-0.0418,-0.0338,-0.034,-0.0341,-0.0342,0,0,0.0108,0.0141,0.0144,0.016,0.0165,0.0167,0.0167,0.0146,0.0127,0.0081,0.004,-0.0058,-0.0117,-0.0166,-0.0238,-0.0287,-0.033,-0.0326,-0.0332,-0.0326,-0.0452,-0.0411,-0.0417,-0.0382,-0.0384,-0.0385,-0.0441,0,0.0131,0.0169,0.0177,0.0213,0.0237,0.0218,0.0222,0.0195,0.0162,0.0117,0.0027,-0.0037,-0.0089,-0.0132,-0.0195,-0.0316,-0.0355,-0.0308,-0.0468,-0.0471,-0.042,-0.0427,-0.0392,-0.0448,-0.045,-0.0451,-0.0453,0,0.0159,0.0187,0.0231,0.0261,0.0267,0.0281,0.027,0.0269,0.0201,0.0169,0.0089,0.0014,-0.0082,-0.012,-0.029,-0.0255,-0.0342,-0.0416,-0.0421,-0.0424,-0.0448,-0.0459,-0.0469,-0.0468,-0.0467,-0.0465,-0.0464,0,0.0179,0.0221,0.0263,0.0277,0.0305,0.0308,0.0316,0.0275,0.0276,0.0196,0.0179,0.0044,-0.0013,-0.0151,-0.0291,-0.0299,-0.0459,-0.0501,-0.0538,-0.0534,-0.0592,-0.059,-0.0617,-0.0616,-0.0616,-0.0616,-0.0616,0,0.0207,0.0239,0.0278,0.0303,0.0351,0.0348,0.0372,0.0348,0.0316,0.0315,0.0209,0.0177,-0.0024,-0.0136,-0.0274,-0.0414,-0.0452,-0.0527,-0.0556,-0.0548,-0.0541,-0.0596,-0.0593,-0.0618,-0.0618,-0.0617,-0.0617,0,0.0221,0.025,0.0301,0.0343,0.0367,0.0397,0.044,0.0443,0.0413,0.0407,0.039,0.0269,0.0125,-0.0055,-0.0276,-0.0374,-0.0529,-0.0569,-0.05,-0.0526,-0.0554,-0.0546,-0.0622,-0.0621,-0.062,-0.062,-0.0619,0,0.0231,0.0264,0.0335,0.0379,0.0404,0.0458,0.0493,0.0492,0.0503,0.0469,0.0466,0.0341,0.0243,-0.001,-0.0217,-0.0462,-0.0503,-0.0565,-0.0603,-0.0538,-0.056,-0.0552,-0.0545,-0.0618,-0.0618,-0.0618,-0.0618,0,0.0257,0.0281,0.0324,0.0416,0.0473,0.0538,0.0588,0.0609,0.0605,0.0583,0.0534,0.0395,0.0243,0.0017,-0.0164,-0.0349,-0.0523,-0.056,-0.0564,-0.0599,-0.0535,-0.0555,-0.0549,-0.0616,-0.0616,-0.0616,-0.0616,0,0.0274,0.0305,0.0369,0.0449,0.0527,0.0594,0.062,0.0644,0.0661,0.0622,0.0609,0.0437,0.0328,0.0078,-0.0094,-0.0266,-0.0326,-0.0385,-0.0399,-0.0404,-0.0334,-0.022,-0.0225,0,0,0,0,0,0.029,0.0332,0.0401,0.0487,0.0558,0.0608,0.0673,0.0687,0.0695,0.0675,0.0645,0.0505,0.0253,0.0139,-0.0026,-0.0106,-0.0367,-0.0305,-0.0445,-0.0603,-0.0606,-0.0559,0,0,0,0,0,0,0.0304,0.0367,0.0401,0.0507,0.0563,0.0647,0.069,0.0696,0.0687,0.0669,0.0538,0.047,0.022,0.0345,-0.0029,-0.0082,-0.019,-0.0428,-0.0432,-0.0602,-0.0604,-0.0606,-0.0559,0,0,0,0,0]}]]